Lid_Strength_Index
1 1 1 1 1 1 1 1 -0 -0 -0 -0 -0 -0 -0 0 0 0 0 1 1 1
1 1 1 1 0 1 0 0 0 -0 -0 -0 -0 -0 -0 0 0 0 0 0 0 1
1 1 1 1 1 0 0 0 0 0 0 -0 -0 -0 -0 0 0 0 1 1 1 1
1 1 1 1 0 0 0 0 0 0 0 0 0 -0 0 0 0 1 1 0 1 1
1 1 1 1 1 0 0 0 0 0 0 0 0 -0 0 1 1 1 1 1 1 1
1 1 1 1 0 0 0 0 0 0 1 1 0 0 0 0 1 1 1 1 2 1
1 1 1 1 1 0 0 0 0 0 0 0 0 0 0 1 1 1 1 1 1 1
1 1 1 1 1 0 0 0 0 0 0 0 0 0 0 1 1 1 1 1 1 1
1 1 1 1 1 1 1 0 0 1 1 1 1 9 7 2 1 1 1 2 1 1
1 2 1 1 1 1 1 1 1 1 1 1 0 9 9 6 0 1 1 1 1 2
2 2 1 1 1 1 1 1 1 1 1 1 1 10 9 7 0 1 1 1 1 2
1 2 1 2 1 1 1 1 1 1 1 1 1 10 10 4 1 1 1 1 2 2
1 1 2 1 1 1 1 1 1 1 1 5 1 10 10 4 1 2 3 3 3 8
1 1 1 1 1 1 1 1 1 1 1 1 1 5 10 7 1 2 3 3 3 4